�N����,����,�~����,�C��,���x,�C��,����,���ϕ���,�ő�u�ԕ���,�ő厞����,���˗�,�I�_���x,�n�����x,�ő啗���N��,DTYPE
"23/12/02","00:10",0.0,1.7,87.4,1013.3,302.2,1.6,2.7,266.7,0.00,-0.1,9.0,"00:07:44",1
"23/12/02","00:20",0.0,2.0,87.7,1013.3,310.2,1.7,2.8,317.8,0.00,0.2,8.8,"00:15:12",1
"23/12/02","00:30",0.0,2.0,87.7,1013.3,320.1,1.6,2.5,322.7,0.00,0.2,8.9,"00:23:34",1
"23/12/02","00:40",0.0,1.6,87.9,1013.5,313.2,1.3,2.0,266.6,0.00,-0.1,9.0,"00:37:44",1
"23/12/02","00:50",0.0,1.6,88.3,1013.5,323.4,1.5,2.1,353.0,0.00,-0.1,8.7,"00:47:52",1
"23/12/02","01:00",0.0,1.5,88.5,1013.5,316.2,1.6,2.1,326.3,0.00,-0.2,8.8,"00:51:04",1
"23/12/02","01:10",0.0,1.1,88.7,1013.5,291.8,1.2,1.4,267.8,0.00,-0.5,8.8,"01:01:44",1
"23/12/02","01:20",0.0,1.1,89.1,1013.3,309.8,1.5,2.0,307.3,0.00,-0.5,8.5,"01:17:12",1
"23/12/02","01:30",0.0,1.4,89.4,1013.3,322.8,1.8,3.2,336.5,0.00,-0.1,8.5,"01:22:48",1
"23/12/02","01:40",0.0,1.6,89.6,1013.5,319.9,1.8,3.4,336.6,0.00,0.1,8.7,"01:35:04",1
"23/12/02","01:50",0.0,1.6,89.6,1013.0,297.9,1.2,1.9,335.1,0.00,0.1,8.7,"01:40:40",1
"23/12/02","02:00",0.0,1.1,89.6,1013.5,289.1,1.1,2.0,319.2,0.00,-0.4,8.6,"01:51:12",1
"23/12/02","02:10",0.0,0.7,89.9,1013.5,294.8,1.3,1.9,325.5,0.00,-0.7,8.6,"02:06:16",1
"23/12/02","02:20",0.0,0.7,90.3,1013.3,306.8,1.7,2.6,331.6,0.00,-0.7,8.4,"02:18:08",1
"23/12/02","02:30",0.0,0.8,90.4,1013.3,315.8,1.6,2.5,320.4,0.00,-0.6,8.4,"02:21:12",1
"23/12/02","02:40",0.0,0.6,90.6,1013.3,304.5,1.2,2.0,318.8,0.00,-0.7,8.5,"02:35:44",1
"23/12/02","02:50",0.0,0.3,90.9,1013.3,296.5,1.1,1.9,264.8,0.00,-1.0,8.4,"02:44:00",1
"23/12/02","03:00",0.0,0.3,91.2,1013.3,291.1,1.2,1.7,272.0,0.00,-0.9,8.3,"02:52:48",1
"23/12/02","03:10",0.0,0.1,91.4,1013.0,278.1,1.0,1.6,269.6,0.00,-1.1,8.4,"03:05:44",1
"23/12/02","03:20",0.0,0.0,91.8,1013.0,284.0,1.2,1.6,269.8,0.00,-1.1,8.5,"03:11:20",1
"23/12/02","03:30",0.0,0.0,92.0,1013.0,287.5,1.2,1.7,291.6,0.00,-1.1,8.2,"03:28:08",1
"23/12/02","03:40",0.0,-0.3,92.1,1013.0,278.8,1.1,1.6,317.2,0.00,-1.4,8.2,"03:36:08",1
"23/12/02","03:50",0.0,-0.1,92.5,1013.3,272.3,1.3,1.7,252.2,0.00,-1.1,8.2,"03:49:04",1
"23/12/02","04:00",0.0,-0.1,92.5,1013.0,286.2,1.2,1.7,310.5,0.00,-1.1,8.2,"03:51:12",1
"23/12/02","04:10",0.0,0.0,92.8,1013.0,267.9,1.2,1.6,313.0,0.00,-1.0,8.0,"04:01:44",1
"23/12/02","04:20",0.0,0.0,93.0,1012.8,281.8,1.2,2.1,329.4,0.00,-1.0,8.1,"04:17:20",1
"23/12/02","04:30",0.0,0.1,93.2,1013.0,279.6,1.3,1.8,307.5,0.00,-0.8,7.8,"04:21:12",1
"23/12/02","04:40",0.0,0.4,93.3,1013.0,283.1,1.5,2.0,309.1,0.00,-0.5,8.0,"04:34:32",1
"23/12/02","04:50",0.0,0.4,93.5,1013.5,290.0,1.6,2.8,322.6,0.00,-0.5,7.9,"04:47:52",1
"23/12/02","05:00",0.0,0.6,93.5,1013.3,296.7,1.7,2.4,330.9,0.00,-0.3,8.1,"04:57:52",1
"23/12/02","05:10",0.0,0.5,93.6,1013.3,321.0,1.8,2.6,327.8,0.00,-0.4,8.1,"05:05:12",1
"23/12/02","05:20",0.0,0.2,93.7,1013.5,288.5,1.0,2.1,326.5,0.00,-0.7,8.0,"05:12:08",1
"23/12/02","05:30",0.0,0.0,93.9,1013.8,308.7,1.3,1.9,315.4,0.00,-0.8,7.8,"05:28:40",1
"23/12/02","05:40",0.0,-0.4,94.0,1013.5,289.3,1.0,1.6,313.4,0.00,-1.2,7.7,"05:33:52",1
"23/12/02","05:50",0.0,-0.8,94.2,1013.5,297.7,1.1,1.9,313.8,0.00,-1.6,7.7,"05:49:04",1
"23/12/02","06:00",0.0,-1.0,94.4,1013.3,305.7,1.5,2.0,319.3,0.00,-1.7,7.8,"05:55:28",1
"23/12/02","06:10",0.0,-0.9,94.6,1013.5,312.2,1.8,2.5,310.5,0.00,-1.6,7.6,"06:08:08",1
"23/12/02","06:20",0.0,-0.8,94.7,1013.8,314.5,1.0,2.1,294.9,0.00,-1.5,7.6,"06:19:52",1
"23/12/02","06:30",0.0,-0.6,94.8,1013.8,297.9,1.3,2.5,309.7,0.00,-1.3,7.7,"06:21:12",1
"23/12/02","06:40",0.0,-0.5,95.0,1014.0,311.5,1.5,2.2,351.1,0.00,-1.2,7.7,"06:38:32",1
"23/12/02","06:50",0.0,-0.6,95.1,1014.2,303.2,1.6,2.1,314.8,0.00,-1.2,7.6,"06:45:36",1
"23/12/02","07:00",0.0,-0.6,95.3,1014.2,296.3,1.5,1.8,317.4,0.00,-1.2,7.6,"06:53:28",1
"23/12/02","07:10",0.0,-0.5,95.4,1014.0,302.5,1.6,1.9,307.2,0.00,-1.1,7.5,"07:06:56",1
"23/12/02","07:20",0.0,-0.5,95.5,1014.2,293.1,1.1,1.6,313.4,0.00,-1.1,7.6,"07:12:32",1
"23/12/02","07:30",0.0,-0.2,95.7,1014.5,299.2,1.0,1.7,270.5,0.00,-0.8,7.5,"07:24:56",1
"23/12/02","07:40",0.0,0.7,95.9,1014.9,271.8,1.6,2.6,324.1,0.03,0.2,7.3,"07:37:54",1
"23/12/02","07:50",0.0,1.5,95.7,1014.9,304.8,0.8,1.8,305.4,0.04,0.9,7.4,"07:40:58",1
"23/12/02","08:00",0.0,2.3,95.6,1015.4,301.1,1.5,2.4,312.0,0.08,1.7,7.3,"07:57:20",1
"23/12/02","08:10",0.0,3.2,95.3,1015.6,252.8,0.7,1.9,289.6,0.12,2.6,7.3,"08:00:08",1
"23/12/02","08:20",0.0,3.6,94.8,1015.9,119.0,0.5,1.3,86.4,0.17,2.9,7.5,"08:15:44",1
"23/12/02","08:30",0.0,4.3,94.3,1016.4,262.8,0.7,1.7,259.3,0.20,3.5,7.5,"08:29:04",1
"23/12/02","08:40",0.0,4.6,93.3,1016.8,12.8,0.7,1.6,309.4,0.24,3.7,7.5,"08:38:48",1
"23/12/02","08:50",0.0,5.3,91.0,1016.6,266.4,0.8,1.6,317.7,0.23,4.0,7.5,"08:40:16",1
"23/12/02","09:00",0.0,6.0,88.4,1017.1,236.1,0.6,1.3,256.3,0.25,4.3,7.4,"08:58:10",1
"23/12/02","09:10",0.0,6.7,84.3,1017.5,223.6,0.6,1.4,232.4,0.26,4.3,7.4,"09:06:16",1
"23/12/02","09:20",0.0,7.5,79.2,1018.0,232.9,0.7,2.0,133.5,0.29,4.2,7.4,"09:12:24",1
"23/12/02","09:30",0.0,8.2,74.2,1018.0,204.0,0.6,1.3,335.6,0.32,3.9,7.6,"09:24:32",1
"23/12/02","09:40",0.0,8.8,71.1,1017.8,244.9,0.6,1.7,245.6,0.37,3.9,7.6,"09:39:20",1
"23/12/02","09:50",0.0,9.2,68.2,1017.8,251.1,2.3,6.0,238.9,0.45,3.7,7.6,"09:44:48",1
"23/12/02","10:00",0.0,9.6,67.8,1017.8,260.5,2.5,5.8,247.6,0.44,4.0,7.5,"09:54:12",1
"23/12/02","10:10",0.0,9.8,66.2,1017.8,282.0,2.1,5.1,247.4,0.41,3.8,7.9,"10:00:12",1
"23/12/02","10:20",0.0,9.9,65.5,1017.5,246.8,2.5,5.0,248.2,0.43,3.8,7.9,"10:15:04",1
"23/12/02","10:30",0.0,9.8,65.4,1017.5,275.7,2.8,6.8,235.0,0.44,3.7,8.1,"10:20:10",1
"23/12/02","10:40",0.0,10.3,63.9,1017.3,278.1,2.3,4.4,337.7,0.44,3.8,8.1,"10:38:58",1
"23/12/02","10:50",0.0,10.3,62.6,1017.3,267.8,3.1,5.2,243.2,0.47,3.5,8.1,"10:42:50",1
"23/12/02","11:00",0.0,10.4,62.7,1017.5,267.7,3.5,8.7,249.1,0.51,3.6,8.2,"10:51:30",1
"23/12/02","11:10",0.0,11.1,61.1,1017.3,297.1,2.2,3.6,285.4,0.47,3.9,8.3,"11:06:50",1
"23/12/02","11:20",0.0,10.9,60.6,1016.8,279.8,3.1,5.4,230.4,0.47,3.6,8.5,"11:15:28",1
"23/12/02","11:30",0.0,11.4,60.8,1016.8,280.4,2.5,4.9,225.1,0.48,4.1,8.7,"11:22:24",1
"23/12/02","11:40",0.0,11.1,59.6,1016.8,298.2,3.4,6.3,315.3,0.50,3.6,8.7,"11:36:16",1
"23/12/02","11:50",0.0,11.5,59.3,1016.6,293.2,2.6,6.0,239.3,0.53,3.9,8.8,"11:44:42",1
"23/12/02","12:00",0.0,11.7,58.0,1016.8,266.5,2.8,5.9,283.0,0.49,3.8,9.0,"11:59:54",1
"23/12/02","12:10",0.0,11.8,57.7,1016.4,271.5,2.5,5.1,258.1,0.49,3.8,8.9,"12:01:26",1
"23/12/02","12:20",0.0,12.2,56.6,1016.1,283.6,2.2,4.3,330.0,0.48,3.9,9.1,"12:16:42",1
"23/12/02","12:30",0.0,11.9,56.3,1016.1,298.7,3.5,8.3,341.0,0.48,3.5,9.2,"12:27:32",1
"23/12/02","12:40",0.0,12.3,55.5,1015.9,294.6,2.5,5.7,270.8,0.47,3.7,9.2,"12:39:12",1
"23/12/02","12:50",0.0,12.3,55.3,1016.1,293.0,2.7,6.8,325.0,0.46,3.6,9.3,"12:49:30",1
"23/12/02","13:00",0.0,12.2,54.5,1015.9,293.7,3.0,5.9,346.4,0.46,3.3,9.5,"12:59:56",1
"23/12/02","13:10",0.0,12.2,54.7,1015.6,302.3,3.1,6.4,333.2,0.45,3.4,9.5,"13:00:12",1
"23/12/02","13:20",0.0,12.5,53.3,1015.9,302.9,2.6,5.4,345.5,0.44,3.3,9.6,"13:13:12",1
"23/12/02","13:30",0.0,12.8,52.1,1015.6,266.7,3.0,5.6,256.6,0.44,3.3,9.6,"13:25:00",1
"23/12/02","13:40",0.0,12.6,52.2,1015.6,326.4,3.1,6.8,345.7,0.33,3.1,9.6,"13:37:10",1
"23/12/02","13:50",0.0,13.3,51.7,1015.9,316.4,2.1,5.9,349.9,0.40,3.6,9.8,"13:41:12",1
"23/12/02","14:00",0.0,13.3,52.7,1015.6,323.0,1.7,3.3,354.2,0.32,3.9,9.9,"13:53:52",1
"23/12/02","14:10",0.0,13.0,53.2,1015.4,315.4,2.6,4.5,318.1,0.35,3.7,10.1,"14:07:04",1
"23/12/02","14:20",0.0,13.4,51.6,1015.6,314.1,1.7,4.2,310.3,0.34,3.7,10.1,"14:15:04",1
"23/12/02","14:30",0.0,13.5,51.1,1015.6,295.5,2.1,3.9,248.0,0.29,3.6,10.2,"14:24:56",1
"23/12/02","14:40",0.0,13.6,49.6,1015.2,308.1,2.0,4.3,323.4,0.28,3.3,10.2,"14:35:44",1
"23/12/02","14:50",0.0,13.0,51.7,1015.2,324.0,1.6,3.6,350.3,0.17,3.3,10.2,"14:44:48",1
"23/12/02","15:00",0.0,12.3,54.8,1015.2,333.5,2.2,4.2,337.0,0.12,3.5,10.3,"14:54:02",1
"23/12/02","15:10",0.0,12.5,56.2,1015.6,340.7,2.5,6.4,346.2,0.20,4.1,10.4,"15:09:46",1
"23/12/02","15:20",0.0,12.3,55.8,1015.6,352.1,2.6,4.8,348.4,0.16,3.8,10.3,"15:15:42",1
"23/12/02","15:30",0.0,11.8,56.2,1015.4,331.8,2.3,4.7,343.0,0.09,3.4,10.5,"15:29:00",1
"23/12/02","15:40",0.0,10.9,58.6,1015.9,332.2,2.6,4.5,339.4,0.01,3.2,10.5,"15:32:10",1
"23/12/02","15:50",0.0,11.3,58.4,1015.6,330.7,2.3,4.7,343.5,0.09,3.5,10.6,"15:49:54",1
"23/12/02","16:00",0.0,10.9,58.5,1015.9,333.8,3.1,5.4,329.9,0.04,3.1,10.6,"15:52:22",1
"23/12/02","16:10",0.0,10.5,60.4,1016.1,312.3,3.0,4.9,308.4,0.00,3.2,10.4,"16:06:06",1
"23/12/02","16:20",0.0,10.0,62.5,1015.9,329.5,2.5,5.1,334.7,0.00,3.2,10.4,"16:18:58",1
"23/12/02","16:30",0.0,9.7,63.5,1015.9,333.8,2.8,5.5,338.1,0.00,3.2,10.5,"16:26:00",1
"23/12/02","16:40",0.0,9.5,64.4,1016.4,336.8,2.3,4.3,345.1,0.00,3.2,10.4,"16:33:20",1
"23/12/02","16:50",0.0,9.1,65.7,1016.1,324.0,2.1,4.0,327.3,0.00,3.1,10.4,"16:44:40",1
"23/12/02","17:00",0.0,8.9,66.6,1016.4,315.2,2.3,4.0,342.2,0.00,3.1,10.5,"16:56:56",1
"23/12/02","17:10",0.0,8.7,67.5,1016.6,303.5,2.1,3.7,334.4,0.00,3.1,10.3,"17:09:20",1
"23/12/02","17:20",0.0,8.6,68.0,1016.6,309.3,2.1,4.4,332.8,0.00,3.1,10.5,"17:10:56",1
"23/12/02","17:30",0.0,8.2,69.0,1016.8,305.3,2.0,2.6,310.8,0.00,2.9,10.4,"17:24:24",1
"23/12/02","17:40",0.0,7.9,70.3,1017.1,314.8,2.1,2.9,323.0,0.00,2.9,10.5,"17:36:48",1
"23/12/02","17:50",0.0,7.7,71.7,1017.1,309.1,2.3,3.4,334.4,0.00,3.0,10.3,"17:46:08",1
"23/12/02","18:00",0.0,7.4,73.0,1017.1,288.4,2.2,2.7,288.7,0.00,2.9,10.2,"17:57:28",1
"23/12/02","18:10",0.0,7.1,74.2,1017.1,308.4,2.8,3.9,301.9,0.00,2.9,10.2,"18:07:04",1
"23/12/02","18:20",0.0,6.8,75.2,1017.3,303.0,2.5,3.6,301.2,0.00,2.8,10.2,"18:11:04",1
"23/12/02","18:30",0.0,6.5,76.2,1017.1,299.9,1.8,2.7,315.4,0.00,2.7,10.1,"18:22:00",1
"23/12/02","18:40",0.0,6.3,77.5,1016.8,316.0,2.3,4.0,330.5,0.00,2.7,10.0,"18:39:20",1
"23/12/02","18:50",0.0,6.2,78.4,1016.8,302.3,2.3,4.3,323.7,0.00,2.8,10.0,"18:44:26",1
"23/12/02","19:00",0.0,6.0,79.5,1017.1,310.9,2.2,3.7,328.6,0.00,2.8,10.1,"18:59:48",1
"23/12/02","19:10",0.0,5.9,80.2,1016.8,304.9,2.2,3.1,295.4,0.00,2.8,9.8,"19:00:32",1
"23/12/02","19:20",0.0,5.7,81.3,1016.6,306.7,2.1,3.1,334.7,0.00,2.8,9.7,"19:19:52",1
"23/12/02","19:30",0.0,5.5,82.3,1017.1,316.9,1.3,3.9,320.8,0.00,2.8,9.7,"19:22:10",1
"23/12/02","19:40",0.0,5.2,83.2,1016.8,320.8,1.5,2.0,336.6,0.00,2.6,9.8,"19:37:56",1
"23/12/02","19:50",0.0,5.1,83.8,1016.8,295.9,1.5,2.2,327.7,0.00,2.6,9.5,"19:40:54",1
"23/12/02","20:00",0.0,4.4,84.4,1016.4,281.3,1.0,1.3,267.4,0.00,2.0,9.5,"19:50:38",1
"23/12/02","20:10",0.0,4.4,85.2,1016.6,322.4,1.7,2.2,335.5,0.00,2.2,9.7,"20:04:38",1
"23/12/02","20:20",0.0,4.0,86.0,1017.1,313.6,1.5,2.0,320.8,0.00,1.9,9.4,"20:18:58",1
"23/12/02","20:30",0.0,3.6,86.6,1016.8,301.8,1.2,1.9,320.5,0.00,1.6,9.5,"20:20:12",1
"23/12/02","20:40",0.0,3.4,87.1,1016.6,301.5,0.7,1.0,306.5,0.00,1.5,9.5,"20:34:16",1
"23/12/02","20:50",0.0,3.4,87.7,1016.6,316.2,1.2,1.9,318.1,0.00,1.6,9.6,"20:43:28",1
"23/12/02","21:00",0.0,3.2,88.1,1016.4,300.0,1.1,1.9,336.1,0.00,1.5,9.2,"20:52:28",1
"23/12/02","21:10",0.0,3.2,88.8,1016.8,303.0,0.5,1.7,324.9,0.00,1.6,9.1,"21:07:22",1
"23/12/02","21:20",0.0,3.0,89.2,1016.6,322.5,1.3,2.1,328.4,0.00,1.4,9.3,"21:17:46",1
"23/12/02","21:30",0.0,2.6,89.9,1016.8,311.2,1.2,2.0,315.8,0.00,1.2,9.1,"21:24:20",1
"23/12/02","21:40",0.0,2.5,90.5,1016.6,318.1,1.7,2.1,333.3,0.00,1.1,9.2,"21:38:52",1
"23/12/02","21:50",0.0,2.4,90.8,1016.6,306.9,1.5,1.8,320.1,0.00,1.1,9.1,"21:40:16",1
"23/12/02","22:00",0.0,2.2,91.3,1016.6,299.2,1.3,1.8,342.7,0.00,1.0,9.1,"21:55:02",1
"23/12/02","22:10",0.0,2.0,91.7,1016.4,298.9,0.6,1.6,315.5,0.00,0.8,9.1,"22:09:36",1
"23/12/02","22:20",0.0,2.3,92.2,1016.4,310.3,1.3,2.0,331.2,0.00,1.2,8.8,"22:19:20",1
"23/12/02","22:30",0.0,2.1,92.3,1016.6,317.6,1.7,2.4,319.4,0.00,1.0,9.0,"22:21:04",1
"23/12/02","22:40",0.0,1.8,92.8,1016.1,304.1,1.6,2.1,308.6,0.00,0.8,8.9,"22:33:12",1
"23/12/02","22:50",0.0,1.6,93.3,1016.4,305.0,0.7,2.1,318.9,0.00,0.7,8.7,"22:41:04",1
"23/12/02","23:00",0.0,1.4,93.5,1016.6,310.3,1.6,2.2,322.9,0.00,0.5,9.0,"22:58:40",1
"23/12/02","23:10",0.0,1.2,93.8,1016.1,305.2,1.2,2.4,315.6,0.00,0.4,8.6,"23:01:28",1
"23/12/02","23:20",0.0,1.2,94.2,1016.4,294.0,1.1,1.8,312.0,0.00,0.4,8.8,"23:13:12",1
"23/12/02","23:30",0.0,1.1,94.4,1016.4,309.7,1.6,2.6,320.2,0.00,0.3,8.6,"23:22:08",1
"23/12/02","23:40",0.0,1.2,94.6,1016.4,304.9,1.5,1.9,316.7,0.00,0.5,8.7,"23:36:48",1
"23/12/02","23:50",0.0,1.0,94.8,1016.6,306.7,1.5,2.1,323.3,0.00,0.3,8.5,"23:40:40",1
"23/12/02","24:00",0.0,1.1,95.0,1016.6,309.2,1.2,1.8,312.2,0.00,0.4,8.5,"23:53:44",1
